Theta_e
348 348 349 350 350 352 352 352 352 353 355 356 356 357 357 356 358 356 357 358 358 355 355 354 353 354 355 354 352 353 357 358 358 358 358 356 357 359 365 365 367 368 367 366 365 364 363 363 366 370 367 365 366 365 362 362 366 367 366 368 362 363 358 358 352 351 348 343 348 346 346 345 346 337 342 340 342 345 347 347 348 347 346 346 346
345 347 347 350 349 352 352 352 353 351 353 356 356 357 360 358 359 358 358 359 358 356 355 355 356 354 353 352 352 353 355 355 356 359 358 356 359 361 364 365 366 367 367 367 367 365 364 362 368 371 369 366 367 368 367 367 367 368 364 364 364 359 351 351 351 349 340 339 340 340 340 342 346 341 337 340 341 342 345 349 347 343 343 344 345
344 346 347 348 349 351 351 352 352 353 354 356 358 360 361 359 360 361 359 359 358 358 357 356 357 358 356 356 354 353 357 358 357 359 360 355 356 361 365 366 366 366 367 367 365 364 367 368 370 370 370 367 366 368 368 366 369 368 366 359 358 355 353 353 353 350 341 339 345 341 334 332 337 336 339 339 338 342 343 343 343 342 341 345 347
344 347 345 347 349 351 352 352 352 353 354 356 358 360 360 361 361 363 361 361 361 361 360 360 360 361 361 361 359 356 355 359 361 360 360 358 354 360 366 367 366 366 365 364 365 365 372 372 370 365 370 370 368 369 368 368 362 361 366 364 358 348 349 349 351 351 348 342 332 335 334 331 331 333 336 338 338 340 340 342 341 343 342 345 345
342 346 344 347 348 350 351 353 353 352 353 355 357 358 359 360 363 364 362 362 362 363 361 362 362 362 362 362 361 360 358 358 358 357 359 359 355 360 364 367 367 365 364 364 364 366 373 373 370 368 370 372 371 369 369 361 366 362 363 365 357 350 343 346 347 344 343 348 341 331 332 330 331 331 332 336 335 336 339 340 342 341 341 344 342
342 338 346 347 348 350 353 354 353 353 354 356 357 359 361 361 363 364 364 363 363 364 365 364 361 360 359 357 354 354 353 353 354 353 353 355 353 355 364 363 363 364 363 365 364 365 372 373 371 371 370 374 371 367 366 366 367 366 366 364 356 356 352 342 344 347 344 346 346 343 346 340 336 334 332 324 342 338 339 339 340 339 342 343 345
345 341 344 348 349 350 352 353 353 352 355 357 358 359 361 363 364 365 364 364 364 365 366 364 363 361 361 358 357 356 354 356 360 359 357 356 359 355 358 363 365 363 361 364 365 366 371 374 373 372 369 371 374 371 368 365 362 363 366 359 357 357 354 346 345 342 345 346 343 342 345 346 341 333 332 333 330 339 337 335 337 339 339 340 339
336 343 349 350 351 350 352 354 354 353 356 358 358 359 362 364 364 364 365 365 365 365 366 364 362 362 362 360 359 358 356 358 361 362 362 361 358 356 356 359 365 365 361 364 366 367 369 371 373 372 368 368 370 370 367 365 364 366 365 361 360 359 355 349 343 345 340 342 341 341 342 345 344 341 340 335 334 330 333 337 338 336 339 339 337
343 339 345 350 350 351 352 355 356 355 355 357 358 360 361 363 365 366 365 365 365 366 366 365 365 363 362 360 360 360 360 359 361 363 362 362 359 359 358 357 363 367 364 362 366 367 368 369 371 371 369 366 367 368 368 366 367 364 363 362 361 360 356 351 351 349 344 341 343 342 344 342 340 341 341 342 338 333 331 331 335 336 336 337 337
341 346 351 351 352 352 354 357 356 355 356 359 359 359 362 365 365 366 366 365 366 367 366 366 365 364 362 362 361 360 359 360 359 360 363 363 361 362 361 361 360 365 367 365 367 368 368 369 368 367 368 364 363 365 364 365 366 366 364 362 362 359 357 353 350 349 347 346 343 344 344 341 342 340 337 337 337 340 336 332 332 332 332 336 340
345 348 351 352 353 354 355 355 357 355 356 358 358 359 362 363 365 366 367 366 367 367 367 365 365 363 363 364 364 361 360 359 358 359 362 362 362 362 362 362 363 362 364 365 365 367 368 369 366 366 366 366 365 364 363 362 362 363 363 364 362 360 355 354 352 348 348 349 346 346 344 342 341 337 338 337 337 336 334 331 332 333 332 332 338
344 347 350 352 353 354 354 355 356 356 356 357 357 358 361 362 365 366 367 368 367 367 367 365 363 364 366 366 365 364 362 358 358 358 361 363 364 363 363 363 364 362 365 361 362 361 366 367 368 365 365 365 364 365 364 362 362 362 363 363 363 362 358 355 354 348 346 348 347 344 343 344 342 342 339 341 340 338 336 332 337 340 338 336 340
345 346 349 350 351 352 353 355 358 357 355 357 357 358 360 363 366 366 366 369 368 368 367 367 365 363 364 366 367 366 363 362 361 360 363 364 365 364 364 362 364 363 361 360 360 363 364 367 368 365 365 366 367 366 365 366 365 361 361 362 361 361 357 355 353 351 346 345 346 346 344 344 344 342 344 341 339 341 341 336 334 335 334 334 340
343 345 347 351 352 353 354 355 356 356 355 356 357 359 361 362 366 367 368 369 369 369 369 367 366 366 366 365 366 366 364 363 362 360 361 365 367 366 363 361 363 363 361 362 360 362 364 366 368 368 369 369 368 369 368 368 367 363 362 363 360 361 358 356 356 353 348 350 347 347 347 343 344 345 342 342 341 338 337 336 338 339 334 331 336
342 346 346 348 352 354 353 354 356 356 356 355 357 359 362 363 366 367 368 369 370 370 369 367 366 365 365 366 366 367 366 364 362 363 363 364 366 366 365 361 360 363 363 364 365 364 365 366 368 368 368 369 371 370 368 369 369 367 365 363 362 359 358 356 355 353 347 346 350 348 349 346 345 348 341 339 342 341 339 338 337 335 330 330 334
339 345 347 349 353 355 355 355 356 357 358 357 358 359 361 363 367 368 369 369 370 369 369 367 366 366 367 367 366 366 367 366 365 366 365 364 366 366 366 366 361 362 366 365 364 364 365 365 367 368 370 368 370 372 371 367 368 366 366 364 362 359 356 356 355 354 348 348 348 351 351 347 347 346 347 346 341 345 344 344 342 340 335 329 331
337 336 344 350 351 355 355 356 356 358 357 357 360 361 363 364 365 368 370 371 370 369 368 366 366 365 366 366 367 366 365 365 363 365 364 365 366 366 365 366 364 363 362 365 365 367 366 366 366 366 368 369 369 371 370 367 367 366 365 365 362 357 358 358 355 355 351 345 347 349 349 349 349 350 349 348 350 349 347 345 344 341 341 337 333
336 339 348 350 351 354 355 356 357 358 359 359 361 362 363 364 366 368 369 369 370 369 367 366 366 366 367 367 367 368 365 364 364 366 367 365 365 367 366 365 365 362 360 362 365 366 368 369 368 367 367 368 367 367 369 368 367 366 365 366 364 362 358 359 357 356 352 348 347 349 349 346 349 349 347 348 350 351 346 346 345 345 345 339 338
334 339 347 349 350 352 355 355 356 359 361 361 361 361 362 364 366 367 368 368 369 367 367 367 367 366 366 366 367 367 366 365 365 366 369 366 364 364 365 364 366 367 364 364 365 366 368 367 368 368 368 367 367 366 368 368 367 365 365 364 365 363 360 357 358 356 353 349 349 348 350 349 350 350 351 348 349 350 348 346 346 346 345 344 342
331 335 343 349 350 351 354 354 355 357 359 360 361 361 361 363 365 366 367 369 369 367 367 366 366 365 365 367 368 369 368 366 366 367 366 366 365 364 365 362 364 365 365 365 364 365 367 367 367 366 364 364 366 366 366 367 366 366 365 363 363 364 360 357 355 355 354 351 349 349 351 351 351 350 350 350 347 350 350 347 346 346 347 346 345
333 335 339 347 350 350 353 355 355 357 359 360 359 360 360 361 362 364 365 365 366 365 365 367 366 366 367 367 366 367 366 365 366 367 367 369 368 367 365 365 365 364 365 365 365 366 367 368 367 368 363 365 367 366 366 367 367 366 365 365 364 363 360 357 357 356 355 352 351 349 351 353 354 351 350 350 347 348 350 348 347 346 344 347 346
335 335 338 343 350 351 351 355 355 355 356 357 358 360 360 360 361 361 363 363 363 363 366 367 367 366 365 366 366 366 367 366 365 367 367 367 368 367 367 368 364 366 366 365 367 366 367 367 367 369 367 363 366 369 365 366 367 366 364 363 362 362 360 358 358 357 356 353 352 350 349 352 356 353 351 349 347 346 348 345 346 345 343 345 348
334 336 335 340 347 351 350 353 355 355 356 357 359 358 358 359 360 360 359 362 362 363 365 368 367 367 366 366 365 366 368 367 364 364 364 364 367 368 368 366 364 364 367 366 366 366 369 369 368 368 369 365 367 367 367 366 367 367 364 363 362 362 361 358 357 357 356 356 352 351 349 350 353 352 352 350 349 347 348 348 345 346 345 345 347
334 336 335 338 342 350 353 353 355 355 356 356 357 358 358 359 359 359 359 360 361 362 364 367 367 365 366 367 366 366 364 364 362 362 363 363 364 366 368 366 366 362 364 367 367 368 370 370 367 367 368 368 366 367 369 368 367 367 366 364 364 365 363 361 358 357 357 357 354 352 351 350 351 351 351 351 351 349 348 348 347 348 348 347 348
337 339 339 342 342 350 355 354 360 360 354 357 357 357 357 358 359 358 359 360 361 361 362 365 366 364 364 365 365 364 363 362 361 361 360 361 361 363 366 366 364 360 360 365 368 369 370 370 367 366 367 368 367 368 368 367 367 368 367 365 366 367 365 363 360 359 359 359 356 353 352 351 350 349 349 349 350 350 349 347 347 348 347 347 347
338 337 337 339 348 354 360 360 362 355 353 358 360 357 356 357 359 359 359 359 360 360 361 364 365 362 363 364 364 364 363 362 362 360 359 360 360 361 362 365 365 362 360 360 366 367 368 370 370 369 368 369 370 369 369 368 366 367 367 367 367 366 365 365 363 361 361 360 358 356 354 353 349 347 347 349 351 350 349 348 347 347 347 348 348
336 340 341 348 350 352 356 359 353 351 352 352 353 355 355 358 359 358 358 359 361 360 362 362 364 363 363 363 364 365 364 362 364 362 360 359 359 358 359 362 365 363 361 358 360 367 368 370 371 371 369 369 370 369 369 370 369 368 368 368 365 365 365 366 365 363 361 361 359 358 357 354 351 349 348 349 351 351 349 349 350 349 348 347 347
343 343 344 346 349 351 354 357 353 350 352 351 352 352 354 356 356 357 357 359 359 361 361 363 364 364 365 364 366 367 366 367 366 368 365 359 358 358 360 361 365 364 362 360 357 362 367 369 370 371 371 371 371 370 371 372 371 368 366 368 366 364 364 365 365 364 362 360 359 358 357 356 354 352 351 351 352 350 350 350 350 351 350 348 346
336 343 349 347 346 353 352 351 353 350 350 351 351 352 355 356 356 357 356 357 360 360 361 361 363 365 367 369 369 368 368 370 368 369 365 362 360 362 363 363 365 365 364 362 360 359 366 368 370 371 371 371 369 369 370 370 370 369 367 365 366 364 363 364 365 364 363 361 360 359 358 356 359 352 346 348 347 347 351 350 352 352 351 350 348
332 341 344 350 350 353 355 354 357 352 352 350 351 354 351 352 353 353 356 356 359 360 362 361 362 366 369 370 371 371 371 370 369 369 371 367 363 363 361 361 364 364 367 367 367 364 362 367 368 370 371 370 369 370 357 342 349 369 369 365 365 365 364 363 364 364 362 361 359 358 359 351 348 344 343 342 342 342 344 350 353 353 352 351 349
331 347 346 353 353 356 358 358 358 357 353 352 353 353 352 350 351 352 355 355 355 362 359 360 365 368 370 372 370 370 371 370 370 369 371 371 369 365 367 368 368 367 369 372 369 364 361 364 367 368 369 370 370 367 341 336 338 344 364 367 364 365 366 363 362 364 363 361 361 359 360 357 351 346 349 339 340 339 340 342 349 352 351 354 350
325 327 330 332 332 348 360 359 355 355 354 353 356 352 351 349 350 351 352 353 354 356 357 365 367 371 371 371 370 372 372 371 371 370 370 371 369 369 369 370 367 366 371 368 366 366 367 363 365 368 368 369 369 347 334 334 335 336 345 368 366 364 364 363 362 361 363 362 360 360 359 360 360 360 357 354 345 338 337 339 340 347 350 348 348
328 329 330 326 326 331 357 355 354 354 352 352 354 351 353 353 354 353 354 352 352 352 363 369 366 369 371 371 372 371 371 371 371 371 371 371 370 369 367 366 365 368 367 368 370 366 366 365 365 367 366 367 369 342 332 331 333 334 335 350 365 365 363 363 363 362 362 363 363 360 360 360 360 345 353 357 357 353 336 334 337 339 343 344 339
326 327 328 332 333 332 333 334 346 349 349 352 353 349 352 353 352 353 353 356 357 357 362 363 366 369 370 372 372 371 371 372 372 372 371 371 370 368 367 366 366 368 368 367 367 368 367 369 366 367 368 368 368 340 329 328 330 330 333 341 364 364 364 363 363 363 362 362 364 363 360 360 361 362 359 357 358 356 354 349 349 351 352 349 341
329 329 327 332 336 338 340 338 336 337 344 351 351 350 351 351 352 350 354 362 358 358 359 363 366 368 369 372 372 372 372 372 372 372 371 371 370 370 368 366 365 366 366 367 367 367 367 368 366 365 366 366 366 335 326 325 326 326 330 335 363 362 364 365 364 364 365 363 364 364 364 361 362 362 360 356 358 358 356 352 351 350 350 350 351
327 330 332 337 330 335 335 341 346 342 338 342 347 350 347 347 350 350 350 353 359 361 359 364 365 365 366 370 371 372 372 373 372 371 370 369 370 370 369 367 366 366 367 367 368 367 366 366 367 366 363 364 366 331 323 324 324 324 327 348 362 363 362 363 365 365 365 366 365 365 365 363 363 363 349 336 347 360 357 354 351 350 350 350 349
328 327 327 335 356 350 346 346 343 340 337 337 339 343 347 346 348 348 351 350 355 362 361 364 363 364 365 370 371 370 371 372 372 371 369 369 369 370 370 369 365 364 364 365 367 365 367 366 366 367 366 365 365 340 320 321 321 322 328 355 361 362 362 362 363 366 366 367 366 366 366 364 362 363 346 330 335 344 358 356 353 351 349 349 348
325 331 330 338 340 346 352 349 343 341 341 341 339 339 346 351 349 349 349 350 351 355 360 364 363 366 367 370 372 370 370 370 371 370 369 368 368 370 369 369 365 363 361 364 366 366 367 367 365 365 365 365 365 344 316 318 319 319 331 357 360 361 361 362 362 364 366 367 366 351 361 365 364 366 333 327 329 343 357 357 356 353 350 348 348
336 341 343 345 351 360 361 356 352 345 344 346 344 341 342 350 353 348 350 350 353 354 357 359 363 368 370 371 371 370 370 370 371 370 370 368 368 369 369 369 366 365 363 365 365 365 365 366 366 365 348 360 365 346 315 318 317 317 333 359 361 361 360 361 360 361 364 365 366 354 345 353 358 355 325 325 325 340 357 358 357 354 351 349 350
344 342 357 360 360 359 355 349 344 350 353 354 348 347 353 358 348 348 349 350 353 357 360 361 364 368 370 369 369 371 371 371 371 371 371 369 369 368 367 367 368 366 364 363 362 363 364 365 366 365 365 365 365 368 337 315 315 315 321 358 363 360 359 360 361 360 360 363 365 365 351 331 333 333 322 320 321 327 353 358 358 354 351 349 351
350 352 357 351 351 353 355 354 365 366 355 353 351 350 353 358 358 356 353 352 356 359 364 365 365 364 368 369 369 369 369 370 370 370 369 368 368 367 366 366 365 365 364 364 363 362 360 363 364 366 366 365 365 365 354 313 314 314 316 331 362 362 362 361 361 359 359 360 362 360 362 335 325 325 317 316 318 321 333 358 359 356 354 353 348
352 359 358 353 351 360 357 351 359 361 359 357 357 356 358 360 358 354 356 355 361 363 363 366 368 366 366 368 368 370 370 369 372 372 370 368 368 368 366 366 364 365 366 365 366 363 360 360 362 365 368 369 362 346 374 316 315 312 315 318 353 362 361 362 361 361 360 360 362 362 364 341 322 322 316 314 315 319 324 352 361 335 332 332 351
350 351 358 355 356 358 356 359 357 358 359 356 354 356 357 357 356 359 357 360 363 364 367 368 369 367 369 369 369 369 369 369 370 372 371 368 368 367 367 368 368 367 366 365 366 365 363 361 364 365 367 371 373 369 341 336 314 312 312 314 325 345 338 364 361 360 361 362 363 363 360 334 320 319 314 313 314 316 320 341 330 324 324 328 343
351 353 356 356 358 356 358 360 361 363 364 362 358 357 358 358 360 364 362 361 364 365 368 367 368 368 366 366 368 369 370 370 369 370 370 370 368 367 367 367 368 365 363 364 363 364 363 360 358 360 361 362 368 368 344 327 325 311 312 312 316 323 332 355 361 360 361 362 361 364 356 323 315 314 312 312 314 315 330 324 321 321 324 330 349
354 353 356 357 358 359 359 360 361 363 369 369 362 360 360 360 366 367 364 362 362 364 366 367 367 366 366 366 367 369 370 370 369 369 370 368 369 368 365 368 368 365 364 363 363 361 362 359 358 358 359 360 362 369 367 339 320 313 312 311 314 317 321 324 353 360 360 360 343 331 329 316 314 313 313 313 315 314 318 321 318 318 327 345 347
354 356 355 358 358 359 359 357 357 357 360 367 370 368 366 369 370 370 369 367 367 367 368 367 367 366 364 364 366 367 369 370 370 368 369 369 367 365 364 366 364 362 364 363 361 359 358 359 358 358 358 359 365 364 368 361 327 319 315 312 314 315 319 320 330 351 338 334 328 324 322 314 314 317 324 328 330 328 318 321 319 321 343 345 345
351 353 356 357 356 354 355 356 357 359 359 357 360 361 363 364 364 365 369 369 369 368 366 366 366 364 366 365 365 364 363 365 368 365 366 368 365 364 363 362 364 362 362 359 359 358 357 355 356 357 358 361 361 361 362 363 353 341 336 329 321 323 316 317 327 339 334 345 343 340 336 318 321 318 323 323 327 325 322 325 328 333 343 344 344
351 352 355 355 355 354 353 354 353 355 357 359 360 362 364 364 362 363 365 368 366 365 364 364 364 364 365 364 362 366 364 363 364 363 360 362 364 363 362 363 362 362 361 360 359 358 356 357 356 356 358 358 359 360 361 360 361 352 348 345 337 333 333 332 333 339 345 349 353 330 324 325 327 325 329 332 335 333 329 328 331 337 342 343 340
349 350 352 352 352 352 352 351 351 353 355 356 357 359 361 363 365 368 368 366 363 363 365 363 362 361 362 365 362 362 362 364 365 366 366 369 369 366 370 366 366 372 366 361 360 360 361 360 359 360 361 360 359 360 355 313 328 313 340 354 350 343 342 342 332 327 346 349 351 343 333 329 329 329 331 334 334 332 329 332 333 338 342 342 340
347 348 349 350 351 350 349 349 349 351 352 352 354 357 359 362 365 367 369 366 364 365 365 362 363 361 362 361 361 359 360 360 362 362 364 353 323 312 338 366 357 322 306 307 319 343 343 354 359 363 359 353 353 347 309 302 301 305 309 306 307 311 321 336 328 321 329 346 348 340 334 330 328 331 331 332 333 330 328 331 333 332 339 340 338
345 345 346 347 347 349 349 348 349 350 350 351 352 353 355 359 361 364 365 364 366 365 365 364 363 362 359 373 360 363 362 363 364 362 366 360 356 339 304 301 312 312 305 298 298 299 303 311 336 348 340 319 313 305 300 298 298 297 296 299 304 308 305 306 312 332 335 339 345 341 333 333 332 335 334 335 334 330 329 330 333 335 339 337 334
Wind_Speed
18 20 21 21 20 19 17 17 17 18 17 18 18 18 17 16 15 15 13 14 13 13 13 12 11 10 10 11 10 10 9 9 8 8 8 8 8 9 9 8 8 9 8 8 7 6 6 5 4 4 4 5 4 4 5 4 1 3 2 2 3 2 1 1 1 2 3 2 3 2 3 4 4 3 7 4 5 4 3 3 3 4 5 5 4
16 18 20 21 19 20 18 16 18 20 18 19 19 19 18 18 17 15 13 14 14 14 13 12 11 11 11 11 10 9 10 9 9 9 9 8 9 8 9 9 9 9 8 8 8 7 7 6 5 5 5 4 4 4 4 3 4 3 4 4 3 2 1 3 3 3 2 3 3 2 3 2 2 1 4 7 6 5 5 1 2 4 4 2 5
15 18 21 21 22 22 18 17 18 20 20 20 19 19 19 17 16 15 14 14 14 14 13 13 12 11 11 10 10 9 10 9 9 9 9 9 10 9 8 9 9 9 9 9 8 8 7 7 6 5 5 5 5 5 5 6 5 6 5 4 3 2 2 2 2 5 3 4 4 1 3 5 4 3 5 3 4 7 5 2 2 6 5 2 2
18 18 21 22 21 20 19 18 18 18 18 19 19 20 17 16 16 16 15 15 14 14 13 13 13 12 11 10 10 9 9 9 9 8 9 10 11 10 9 9 10 10 10 10 8 8 8 7 6 6 6 6 5 5 5 5 3 6 5 4 3 3 4 4 5 4 5 3 2 5 4 5 6 4 4 4 5 6 5 5 3 3 4 3 5
18 19 22 22 22 22 20 18 18 19 19 19 20 19 15 19 18 18 15 15 14 15 15 12 12 11 10 9 9 9 7 8 9 9 10 10 10 10 11 11 11 10 10 11 9 9 9 8 7 7 6 7 6 5 5 6 5 3 4 3 4 4 3 6 3 4 2 4 2 2 1 3 3 8 6 3 4 6 8 7 4 4 9 2 4
19 22 22 24 23 21 21 20 20 19 20 19 20 20 18 18 18 18 15 15 15 16 16 13 12 11 11 10 10 10 9 9 10 10 10 11 11 10 11 11 11 11 10 10 10 9 9 8 8 7 7 6 6 6 5 4 4 5 3 3 4 4 4 1 5 0 2 2 3 5 4 3 3 5 6 2 4 1 4 4 6 6 9 4 1
19 19 20 22 23 23 23 22 21 21 20 19 19 19 20 19 19 19 16 15 15 15 17 13 13 12 13 13 12 11 11 9 9 9 9 9 9 10 10 11 11 11 11 10 10 10 9 8 8 8 7 6 6 6 5 6 5 5 4 4 3 3 2 2 1 5 3 2 3 4 5 7 2 2 1 5 3 4 2 6 6 5 8 7 6
19 20 22 22 23 24 25 25 22 21 20 19 19 19 20 19 20 19 16 15 15 14 17 15 13 13 14 14 12 12 12 10 10 9 9 8 9 11 10 10 11 11 10 10 10 10 9 9 9 8 7 7 6 6 6 6 4 4 4 4 4 3 4 3 5 3 6 5 6 6 5 1 1 3 4 3 4 4 2 4 5 6 3 8 7
20 20 23 23 23 25 24 24 23 22 20 20 19 19 19 19 19 19 17 16 16 17 17 17 14 14 14 13 12 11 11 10 9 9 9 8 9 9 9 9 10 11 10 11 11 11 10 9 9 8 8 7 6 6 6 6 6 5 5 5 5 4 3 4 3 4 5 7 5 6 4 4 4 5 3 1 2 5 5 5 3 7 5 4 2
20 23 21 21 22 23 23 23 22 21 20 20 19 18 18 17 18 20 19 16 16 18 17 18 17 14 14 14 15 12 11 10 9 10 9 9 9 10 9 8 9 10 10 10 11 11 11 10 9 10 9 8 7 7 7 6 6 6 6 6 6 6 4 5 5 4 6 2 8 6 5 5 5 4 6 6 5 2 3 7 6 6 4 4 5
17 19 20 21 21 21 21 22 23 22 19 20 19 19 19 19 19 20 20 16 17 18 19 19 18 15 14 15 16 15 13 12 10 10 10 10 10 10 10 9 9 9 10 9 11 11 11 10 10 10 9 8 8 7 7 7 7 7 7 7 6 7 5 5 6 6 5 5 7 5 6 6 5 6 4 6 4 4 5 6 9 11 8 6 4
17 17 19 20 20 21 21 21 22 22 21 21 20 19 19 19 19 21 20 18 17 18 19 19 17 17 15 16 16 15 14 12 13 12 11 12 11 10 9 9 9 9 9 9 11 12 10 10 11 10 9 8 8 8 7 7 7 7 6 6 6 7 6 6 6 7 8 5 5 7 7 6 6 5 5 2 1 4 6 5 3 5 3 5 4
17 17 17 19 20 21 23 22 21 21 20 22 22 21 20 20 21 22 21 20 18 19 20 20 18 17 16 15 15 13 14 13 13 13 12 11 11 11 10 10 9 9 10 10 11 13 10 10 10 10 8 9 8 8 7 7 6 5 6 7 7 7 6 7 7 8 9 7 7 7 7 8 7 6 4 5 6 3 4 4 3 5 4 3 7
17 17 18 18 19 20 21 21 22 22 24 24 23 21 19 19 21 22 22 21 19 19 20 20 19 18 17 15 14 13 14 14 12 13 13 11 11 11 12 11 10 11 11 11 10 12 11 11 11 10 9 9 9 8 8 7 6 6 6 7 8 6 6 8 8 8 8 9 8 6 8 7 6 7 6 5 5 6 5 5 5 5 3 5 5
16 16 18 19 20 21 21 21 21 21 23 23 21 20 20 20 21 23 22 22 21 20 19 20 18 18 16 16 14 13 13 13 12 11 12 13 12 12 11 11 11 10 11 10 11 10 12 11 12 11 11 10 10 9 9 8 7 7 6 7 6 7 7 8 8 9 9 10 10 8 6 6 6 5 6 7 5 6 5 6 5 4 2 4 5
16 15 18 19 20 21 20 20 21 21 23 22 23 21 21 20 22 23 24 23 22 22 20 20 18 17 17 17 17 15 12 12 11 11 12 13 13 12 12 11 10 10 10 10 12 11 11 12 12 12 11 11 11 10 10 9 9 8 7 7 8 6 8 9 8 9 10 11 11 8 7 7 6 6 6 6 6 4 5 4 5 4 5 5 5
17 17 18 20 20 21 21 22 21 22 22 23 23 23 23 22 22 23 22 22 22 22 20 20 19 18 19 18 17 16 16 16 15 16 16 13 13 12 12 12 12 10 10 11 11 12 11 12 12 12 12 11 12 11 11 10 9 9 8 8 9 9 8 9 9 8 9 10 10 11 8 7 5 6 5 5 5 4 3 3 3 5 5 4 5
18 20 20 21 21 23 21 21 23 23 25 24 23 23 22 22 24 24 23 23 22 22 21 20 19 19 19 19 18 18 17 17 15 15 14 13 13 12 12 12 13 12 11 10 11 13 12 13 12 12 12 12 12 12 11 11 10 9 10 9 9 9 8 8 9 9 9 8 9 9 9 8 7 6 7 6 6 5 5 5 5 5 5 5 4
17 18 18 19 19 21 22 24 25 25 23 23 22 22 21 21 23 25 26 25 25 21 20 18 19 16 16 18 20 18 17 16 15 14 13 14 16 15 15 13 12 12 11 11 11 12 12 13 12 12 12 13 13 12 12 11 11 10 10 10 10 10 9 9 9 9 9 9 9 10 9 8 8 7 7 7 6 7 6 6 6 6 6 6 5
18 18 18 19 21 23 25 24 24 24 23 22 23 21 24 23 22 23 23 22 22 22 19 19 20 18 17 18 18 17 17 16 15 15 15 16 16 16 16 15 14 12 13 13 12 13 13 14 14 14 13 13 13 13 13 12 11 11 10 10 11 11 11 11 11 10 9 9 10 10 9 9 8 8 8 8 7 7 7 7 7 7 6 7 6
17 17 18 20 21 22 23 22 21 20 20 20 22 24 23 22 22 24 24 24 24 23 22 20 19 19 19 20 20 19 20 18 18 17 16 15 15 15 15 14 13 13 13 14 14 14 13 14 14 14 14 13 13 13 12 12 12 12 11 11 11 13 12 11 10 11 11 10 10 10 10 10 9 9 8 8 8 8 8 8 7 7 7 7 7
16 16 14 15 18 19 20 19 17 19 21 23 22 22 23 24 22 23 23 23 25 23 21 20 19 19 21 21 21 20 19 17 19 18 18 16 16 15 15 14 15 14 14 15 15 14 14 14 15 14 13 13 13 13 14 12 13 13 13 11 11 12 13 12 11 12 12 10 11 11 11 11 10 10 9 9 9 9 9 9 9 9 8 8 8
17 16 18 15 13 16 17 19 19 20 20 22 21 21 23 25 24 22 23 24 24 24 22 20 19 19 21 20 20 19 19 20 21 19 19 19 17 16 15 15 15 14 15 14 15 15 14 14 14 13 13 13 13 14 13 13 13 14 14 13 13 13 14 14 14 13 13 12 12 12 13 12 10 11 11 10 10 10 9 10 10 9 9 9 9
14 13 14 17 18 16 14 17 17 16 17 20 20 20 21 21 23 23 26 26 24 22 21 21 20 21 22 20 19 19 21 22 21 19 21 20 18 17 16 17 17 15 15 15 15 15 14 14 14 14 13 13 13 14 14 13 14 14 14 14 13 13 14 14 15 14 14 13 13 13 13 13 12 12 11 10 9 9 9 9 10 9 9 9 8
8 8 8 9 13 14 12 14 15 16 19 18 20 20 20 21 22 23 23 24 22 21 21 21 22 23 23 21 22 21 22 23 23 20 23 22 21 18 17 18 18 17 17 15 14 14 14 15 14 15 14 14 14 14 14 14 14 13 14 14 14 14 14 15 15 14 14 14 14 14 14 14 13 13 12 12 11 12 10 9 9 9 9 9 8
7 7 9 11 9 11 11 12 11 15 16 14 15 19 19 19 22 21 20 21 22 21 22 21 21 22 21 23 22 22 23 24 23 22 23 22 21 20 19 17 18 18 18 16 16 14 14 15 15 15 15 15 14 14 15 15 15 14 14 14 14 14 14 14 15 15 15 14 14 15 14 14 14 14 13 12 12 13 11 11 11 9 9 9 9
8 8 7 5 5 8 12 12 14 16 16 16 17 18 18 17 19 21 19 20 20 20 20 21 21 21 20 22 22 21 21 22 21 21 19 20 20 20 20 19 18 18 18 18 17 16 14 15 15 15 15 15 15 15 14 15 15 14 14 15 15 15 15 14 15 16 16 15 15 15 14 15 15 15 15 14 13 13 12 12 11 10 10 10 9
9 9 10 10 10 9 10 13 14 15 16 16 16 17 17 17 18 18 19 18 17 19 20 20 19 19 19 21 20 20 19 18 18 17 18 19 19 19 18 17 16 18 18 19 19 17 16 15 16 16 16 15 15 15 15 15 15 15 15 15 15 15 15 15 15 15 16 16 16 16 16 16 16 15 15 14 13 13 11 12 11 10 10 10 10
12 11 11 11 11 10 11 12 13 14 15 16 15 15 14 15 16 16 18 19 17 18 19 20 19 18 18 17 16 17 17 16 17 16 17 17 17 17 16 16 15 16 15 17 18 18 17 17 16 16 16 16 16 16 14 15 16 16 16 16 16 15 15 15 15 15 16 16 16 16 16 16 16 15 17 14 14 12 11 11 11 11 11 11 10
11 12 12 11 12 11 12 12 12 14 14 16 15 14 15 15 16 17 16 17 16 18 17 18 19 17 16 16 16 15 16 16 16 16 16 16 16 16 17 16 16 17 15 14 15 16 18 18 17 17 17 15 15 14 15 20 17 15 16 14 14 14 15 14 14 14 15 16 17 16 15 18 16 17 17 17 15 15 15 13 11 12 12 11 11
13 14 10 12 10 10 11 12 13 14 15 14 14 14 14 16 16 17 17 17 17 15 18 18 16 16 15 15 16 16 16 17 17 16 15 15 16 15 14 14 14 15 15 13 14 16 17 17 18 17 18 16 15 14 19 20 20 19 15 15 14 14 14 14 15 14 14 15 15 16 14 14 14 15 17 19 17 16 16 16 14 14 13 12 12
6 5 4 3 1 8 12 14 15 15 16 15 13 14 15 16 16 17 17 17 17 18 19 16 15 13 15 16 16 16 16 16 15 16 16 16 15 14 14 14 15 16 14 14 16 16 15 16 16 17 18 17 16 17 20 21 21 21 18 14 14 14 14 15 15 15 14 14 15 15 15 13 14 14 14 15 17 18 16 16 16 13 15 16 13
7 7 7 9 11 7 12 11 10 12 13 16 15 15 15 15 14 14 14 18 19 19 15 14 15 15 16 16 15 16 16 16 17 16 15 15 15 15 15 16 17 16 15 15 15 16 16 16 16 17 18 18 17 17 21 23 23 23 23 19 14 15 15 15 16 16 16 15 14 14 14 14 12 18 16 16 14 15 16 18 17 16 13 14 15
8 7 5 6 5 6 7 5 4 7 12 13 14 15 13 14 14 14 16 15 15 15 14 16 16 15 15 16 16 17 17 16 15 15 15 15 16 17 17 16 15 15 16 16 17 17 16 16 16 16 16 17 18 16 22 24 24 25 24 20 16 16 16 16 17 17 16 16 16 14 14 14 14 12 15 17 15 15 14 12 12 12 12 12 11
8 8 9 5 5 6 7 8 9 7 5 9 12 12 11 13 14 15 15 12 13 15 14 15 16 15 15 16 17 17 16 15 15 16 16 17 17 16 17 16 16 16 16 16 17 17 16 17 18 18 16 17 17 18 22 24 24 25 25 21 17 16 15 15 16 16 16 17 16 15 16 15 15 14 14 17 16 16 15 14 14 15 15 15 13
7 7 6 7 9 6 6 3 2 3 6 8 10 11 12 14 15 16 16 16 14 14 15 15 16 18 18 17 17 16 15 15 16 17 17 18 17 17 17 15 14 14 14 15 15 16 17 18 17 18 18 18 17 17 21 24 25 24 25 15 16 17 16 15 15 16 16 15 16 16 16 16 15 16 17 22 18 15 15 16 16 16 15 14 15
9 9 9 2 3 2 4 3 5 6 7 8 8 10 12 13 15 15 16 17 16 14 15 15 17 18 18 17 17 17 16 16 16 17 17 17 16 16 15 13 15 15 15 16 16 16 15 16 18 18 19 17 17 15 21 23 24 25 19 13 15 15 15 16 15 15 15 16 16 17 16 15 16 16 17 22 22 18 15 16 15 15 14 14 14
11 8 6 6 6 6 6 7 8 9 10 9 9 10 11 12 13 15 16 17 18 18 16 14 16 17 17 16 16 16 16 17 17 18 18 17 16 14 15 14 16 17 17 17 15 15 16 16 18 20 19 18 17 14 21 22 24 25 22 15 14 15 16 15 15 15 14 14 17 19 18 17 16 15 18 24 23 20 16 16 16 15 15 15 14
6 7 7 7 6 6 6 6 7 9 9 10 11 11 12 12 13 15 16 17 18 17 17 17 16 15 16 15 16 16 16 17 17 17 16 16 16 15 14 14 15 15 15 14 14 14 15 15 17 19 16 18 18 14 20 22 24 24 22 14 15 14 15 15 15 15 16 15 16 14 20 19 17 16 20 24 25 21 17 17 17 16 16 16 14
10 9 8 6 5 7 8 9 10 10 8 8 10 10 10 10 14 14 15 17 17 15 14 14 14 15 15 15 15 16 16 16 16 15 14 14 13 13 15 15 14 14 14 14 14 14 16 15 15 16 15 18 18 14 15 23 24 24 27 16 14 14 16 17 16 15 15 15 16 14 17 22 21 19 19 24 24 26 19 16 16 16 16 17 15
10 8 9 8 9 7 6 6 5 5 4 7 8 9 10 9 10 12 14 14 13 12 12 13 13 15 15 16 15 15 16 15 14 14 14 14 14 15 14 14 15 14 13 14 15 15 15 15 15 15 15 17 16 18 14 24 24 25 27 23 15 16 16 14 14 15 15 15 15 19 15 19 23 19 19 23 25 26 22 16 16 15 15 13 14
9 5 5 6 6 4 5 6 3 4 4 5 6 7 7 7 9 12 12 10 10 11 11 12 13 14 15 15 15 14 15 14 14 13 13 13 13 13 13 14 13 12 13 14 13 13 13 13 13 13 13 13 13 16 11 19 24 26 26 28 16 16 15 13 14 15 15 15 16 14 13 15 23 21 19 22 25 24 25 15 15 15 14 15 14
8 9 3 5 3 2 3 4 3 3 2 4 6 7 7 7 9 9 9 8 8 10 11 12 12 13 13 14 14 15 13 12 12 13 13 13 12 13 12 12 12 12 12 13 12 12 12 12 11 10 11 11 11 10 13 13 21 22 24 25 25 17 16 14 15 15 15 15 13 14 14 16 23 23 20 21 22 24 20 17 18 14 16 18 15
7 4 4 4 1 2 2 2 4 4 3 3 4 6 6 6 7 6 7 7 7 8 9 11 11 12 12 13 13 13 13 12 13 13 13 13 12 12 12 11 11 12 12 12 11 11 11 13 14 12 13 13 10 11 10 17 17 23 22 25 26 25 20 16 16 16 15 15 16 15 12 16 22 23 23 21 21 21 18 23 18 17 18 18 13
4 5 4 3 0 0 0 2 1 2 3 2 2 5 6 6 3 5 7 7 7 7 8 9 10 11 11 11 11 11 12 11 11 12 12 12 13 12 11 10 10 11 11 10 11 11 11 12 12 12 11 11 12 10 10 13 21 22 24 25 26 28 24 20 15 16 15 16 17 16 17 15 20 22 24 23 20 22 24 21 16 15 15 10 12
3 4 5 2 2 3 4 5 5 5 4 5 5 4 6 5 3 2 4 5 7 8 8 9 8 9 10 11 11 11 11 10 10 10 11 10 11 11 10 10 11 11 10 11 11 11 11 11 11 11 11 10 9 8 8 7 12 16 19 24 27 26 27 25 22 18 19 18 15 13 8 11 18 19 14 9 7 12 18 19 17 16 12 13 13
5 5 6 3 1 4 5 6 8 7 6 6 6 5 4 4 3 3 3 3 6 7 7 8 8 8 9 9 10 9 9 10 11 10 10 9 9 10 10 10 10 10 10 11 12 11 12 11 11 11 10 10 9 9 9 8 8 8 8 10 12 14 20 20 16 14 14 10 12 9 5 9 8 17 21 22 22 20 16 13 10 11 14 14 14
7 5 4 2 2 4 6 7 7 7 7 7 7 6 5 3 3 3 4 4 5 7 7 7 8 7 7 8 8 9 9 9 10 9 9 10 9 10 10 10 10 9 8 9 11 11 10 10 10 10 10 9 9 8 10 7 3 4 7 8 10 11 11 10 12 13 13 14 16 8 7 6 7 9 14 14 15 15 18 17 13 15 17 15 15
7 4 5 1 1 3 5 7 7 6 6 6 7 7 6 4 2 3 4 5 5 6 5 8 7 6 7 7 8 8 8 7 8 8 3 5 1 6 8 8 1 2 5 7 9 10 10 10 10 9 7 9 10 8 2 6 5 9 6 5 9 11 10 10 15 19 15 15 10 5 5 7 9 12 11 12 10 8 7 14 16 15 15 14 15
3 2 2 4 6 4 4 6 6 6 6 6 7 6 7 7 5 4 3 5 5 5 5 6 6 4 5 8 6 7 8 7 7 9 8 6 11 17 13 5 6 11 18 17 14 6 6 6 6 6 8 6 5 6 11 13 11 7 6 10 12 12 10 12 15 21 18 13 11 12 10 11 12 14 15 16 16 14 12 12 15 19 15 11 15
2 1 4 4 3 3 6 6 6 5 6 7 7 7 7 7 7 6 5 5 5 5 5 7 7 7 8 3 4 4 8 4 5 6 8 10 8 12 19 19 14 13 15 16 15 14 14 13 7 4 5 8 10 12 13 13 13 13 11 9 12 14 13 15 16 12 10 13 14 12 12 16 17 16 16 18 18 17 20 19 18 18 14 15 15
Wind_Direction
201 184 184 183 180 178 181 176 181 180 180 175 179 180 182 183 179 183 179 182 175 179 184 189 187 188 195 201 199 194 204 202 205 212 209 204 193 191 185 192 191 189 192 198 201 210 225 225 214 209 216 216 224 246 261 251 198 225 239 215 245 236 177 170 203 254 83 157 131 206 143 274 170 134 253 237 145 122 143 174 143 123 132 102 69
207 190 184 179 182 178 179 177 181 179 182 177 181 179 181 184 180 181 181 180 181 183 180 191 191 192 193 199 199 195 196 204 204 204 211 198 201 193 182 198 194 191 193 196 202 207 212 215 212 201 205 222 215 232 244 228 233 228 221 213 220 241 210 226 167 195 193 196 158 184 179 178 13 173 187 250 141 167 129 135 111 136 109 127 137
203 195 181 180 182 179 180 179 182 180 179 179 179 179 181 184 180 181 182 182 183 184 184 187 191 193 195 197 202 196 197 201 208 203 203 202 198 193 192 192 195 193 194 196 202 204 209 208 199 202 204 214 211 218 228 229 224 222 217 224 197 178 205 194 152 256 271 151 87 106 184 177 140 231 242 212 220 139 145 164 219 87 103 138 158
205 192 184 179 181 179 180 182 182 180 180 179 180 181 181 185 182 181 183 185 184 185 188 189 190 191 195 200 202 215 194 194 205 206 203 207 201 189 195 197 196 193 195 197 202 202 206 205 202 209 197 212 211 213 218 217 171 235 218 202 209 214 186 163 180 214 259 108 153 220 173 196 156 171 212 168 229 144 150 141 143 159 111 119 259
202 196 190 180 179 181 181 180 182 183 182 182 182 181 182 184 182 182 182 185 186 186 187 187 187 190 193 201 202 213 211 197 201 205 202 205 210 186 196 200 196 198 196 200 202 201 203 202 203 205 199 200 205 213 218 233 190 235 236 199 201 237 237 143 163 194 201 319 313 179 287 219 212 151 163 218 214 163 148 153 130 252 117 59 35
197 198 196 182 179 178 177 181 185 186 185 185 184 182 181 181 182 181 182 185 187 186 185 187 187 187 188 195 197 202 208 198 202 205 201 199 209 195 198 205 199 201 200 199 204 201 203 202 202 206 202 200 200 216 222 229 220 221 197 214 203 216 280 217 148 343 106 271 313 300 9 350 323 148 174 184 292 246 104 100 132 242 115 115 94
189 205 204 189 179 177 179 182 187 189 186 184 185 183 182 179 181 181 183 184 187 186 185 188 188 190 192 194 198 197 203 203 198 208 207 200 206 203 192 197 202 202 202 199 202 205 204 202 202 207 209 206 202 204 213 222 217 214 198 206 213 180 206 225 234 157 144 212 238 253 177 231 66 206 140 113 184 296 161 179 159 228 137 148 176
188 204 199 190 182 181 181 182 185 188 184 183 185 183 183 180 180 182 184 184 185 184 186 187 190 190 192 198 200 201 202 202 197 201 206 206 203 213 199 194 197 204 206 195 201 205 206 205 203 207 213 218 208 210 216 218 221 193 195 211 182 190 172 190 201 175 157 187 196 230 194 342 6 303 201 137 167 171 267 301 168 166 202 167 172
179 197 200 192 187 187 183 181 185 184 183 185 185 184 182 180 179 180 183 183 184 185 184 188 192 190 194 197 202 203 203 203 199 201 204 207 207 206 210 193 192 199 208 199 197 206 203 207 205 207 213 217 215 218 217 214 212 194 198 194 183 174 169 188 179 236 167 173 182 197 221 186 187 230 122 12 266 167 195 200 241 148 194 153 272
188 196 194 193 191 191 187 182 180 184 184 184 184 181 178 179 180 180 183 184 181 184 185 187 191 193 195 200 201 201 200 203 203 197 204 201 207 203 205 200 195 197 203 206 194 203 205 204 207 210 213 217 222 222 213 211 206 204 203 201 186 195 165 182 185 216 239 156 160 160 229 198 185 220 172 177 203 87 265 176 183 188 187 225 151
192 192 193 193 192 191 187 184 184 183 181 181 183 183 179 179 180 181 183 182 182 183 186 188 189 194 198 200 203 201 196 196 200 200 196 202 203 202 201 201 202 197 201 204 207 202 204 205 208 208 211 210 217 222 217 215 202 202 203 197 190 195 181 182 187 209 217 249 149 169 198 202 194 191 240 185 179 183 217 210 182 184 191 177 175
193 192 191 190 190 190 189 189 186 184 181 181 185 182 181 180 179 180 182 183 182 183 185 188 189 193 198 201 203 202 196 195 199 202 195 199 201 200 198 200 205 205 201 200 206 209 204 206 210 209 205 207 209 213 219 213 219 199 195 188 189 200 182 182 199 192 212 217 198 173 191 212 185 230 190 272 244 183 216 251 302 35 147 158 158
194 192 190 187 190 190 191 188 185 185 184 182 184 184 182 180 179 180 182 182 182 183 185 187 189 193 196 199 202 200 199 198 199 201 198 198 199 200 196 199 200 208 208 207 203 206 200 203 206 208 201 203 206 207 213 219 218 212 186 190 190 192 190 194 198 199 208 196 219 185 188 208 189 205 231 211 186 212 285 267 292 169 177 160 159
192 190 192 188 189 192 191 188 186 186 186 183 183 183 182 182 181 181 181 181 182 183 184 186 189 192 194 199 201 198 200 200 201 202 202 199 198 201 201 200 201 205 207 210 210 201 202 202 203 206 204 198 200 204 205 203 207 218 194 193 195 195 194 196 204 207 207 207 211 222 194 205 208 185 204 230 185 192 202 228 242 299 193 208 160
194 189 192 190 189 190 190 190 188 188 188 185 184 183 181 183 181 181 179 181 181 183 185 187 189 192 193 197 199 198 199 200 203 205 204 203 201 202 204 205 206 206 208 206 209 206 200 200 199 203 201 198 194 198 197 196 197 203 211 200 207 194 200 204 204 213 206 208 210 221 224 204 218 184 197 191 231 183 193 210 219 210 240 284 179
189 192 193 193 188 188 190 190 190 189 188 188 185 183 184 185 182 182 180 180 182 183 185 186 188 189 192 194 198 199 198 199 200 204 208 206 204 204 204 208 211 207 206 207 203 207 202 202 198 203 201 199 197 195 196 194 193 199 200 200 205 200 200 206 212 210 214 208 211 214 225 228 191 209 207 184 208 231 184 201 193 216 223 187 247
186 192 199 192 189 188 190 190 191 190 189 190 187 185 184 182 182 183 183 181 183 184 185 186 187 186 192 194 196 196 198 198 199 202 206 206 206 206 206 206 208 211 208 205 205 201 203 201 201 202 201 200 199 197 198 198 192 197 199 197 201 209 196 204 210 211 217 209 210 209 212 231 221 204 215 205 188 217 205 199 196 207 216 270 204
191 191 189 189 189 188 191 192 192 192 193 192 188 187 183 182 182 182 183 183 184 184 185 185 185 188 188 192 194 197 197 200 201 201 203 205 205 206 206 205 207 207 209 209 204 202 201 201 201 201 198 200 202 201 201 199 193 198 199 198 199 207 202 201 209 214 213 219 210 209 206 214 223 213 207 216 183 192 201 197 202 202 210 223 240
193 194 188 187 188 188 191 193 194 194 192 193 190 188 187 186 184 183 184 186 185 186 186 186 185 187 188 191 193 195 198 199 201 201 199 205 207 204 206 206 205 205 205 210 205 204 201 200 201 200 200 198 199 200 196 198 195 199 198 197 199 200 206 202 205 210 215 215 217 212 205 212 211 216 209 209 198 186 202 205 203 205 198 220 231
196 194 191 188 190 191 192 195 194 192 191 191 190 190 192 189 186 188 187 186 186 186 185 186 187 189 189 190 193 194 195 198 198 198 201 204 207 207 206 205 205 202 204 204 208 207 203 203 201 202 201 200 197 199 196 195 195 199 198 200 195 196 203 208 205 204 212 209 215 217 209 208 209 210 211 210 205 198 197 205 208 203 206 207 214
199 191 190 193 192 194 193 194 194 191 188 190 191 193 193 191 191 190 187 188 187 188 187 188 188 191 189 189 191 193 195 196 198 197 201 204 206 208 206 207 201 205 203 203 205 208 206 204 205 203 204 199 197 198 196 193 195 196 201 203 202 193 201 207 207 206 207 210 207 214 217 208 210 209 208 210 208 199 202 207 207 207 209 204 205
204 195 185 204 196 194 191 189 192 191 190 193 194 192 192 194 193 192 191 190 190 189 189 187 189 190 191 191 192 192 194 194 196 197 200 202 205 204 206 203 204 202 203 204 203 205 207 205 208 204 205 202 197 197 198 196 196 197 200 200 207 198 197 205 205 207 207 209 203 207 213 213 209 213 209 210 210 204 200 207 206 208 210 205 204
199 197 189 187 207 196 190 185 191 194 194 193 195 194 195 194 193 193 193 194 193 191 188 185 187 189 192 192 192 192 191 193 197 198 200 201 202 204 203 203 203 202 202 206 203 205 203 205 206 205 202 204 198 197 200 200 198 198 199 201 202 200 198 201 203 206 207 206 205 203 207 209 208 211 213 215 212 211 206 207 209 206 210 211 203
198 201 195 180 193 191 185 183 187 196 196 195 197 198 198 196 195 194 196 195 193 191 188 186 187 190 191 190 192 193 194 196 198 199 201 203 202 202 201 203 203 205 202 204 207 203 202 201 204 204 202 202 200 198 200 203 202 201 201 203 201 200 200 200 202 204 205 205 207 203 205 205 207 209 210 213 216 212 212 208 209 208 208 214 212
186 205 202 187 183 175 182 184 185 193 198 197 196 199 199 199 199 198 197 194 193 192 190 189 190 190 189 191 193 194 195 198 200 201 203 203 204 203 202 203 203 207 209 202 204 204 202 200 202 202 201 201 201 200 200 204 206 205 205 204 202 200 201 201 202 204 204 205 206 207 204 204 203 207 209 212 212 213 211 211 210 208 208 210 215
180 194 194 197 186 171 175 185 187 194 199 199 199 201 203 201 202 202 198 194 193 193 192 190 191 192 192 193 193 195 197 199 201 203 204 204 204 205 204 203 205 205 207 208 201 202 202 200 199 200 201 200 199 200 200 203 205 206 207 208 205 203 202 201 202 202 204 206 208 208 206 203 203 205 208 208 209 211 210 212 212 209 209 208 211
181 180 173 169 174 177 175 188 195 200 202 201 204 203 204 203 204 203 200 196 194 194 192 191 191 193 193 194 194 196 197 199 201 204 204 204 206 207 207 205 203 206 204 208 205 200 200 200 198 199 200 199 199 200 201 202 205 206 207 209 209 205 204 202 203 204 206 207 209 208 208 206 206 205 206 206 205 207 209 211 211 211 208 211 210
150 158 159 170 180 188 188 191 200 202 203 204 204 206 205 204 205 203 201 199 196 196 193 191 190 193 193 195 195 195 196 199 200 200 203 205 206 208 207 206 201 205 206 207 208 201 199 200 199 199 199 197 198 201 201 201 204 206 206 208 211 209 206 205 205 206 208 209 210 210 210 208 208 206 205 206 203 204 204 209 207 208 209 209 214
156 162 165 173 176 186 194 196 201 206 205 205 206 208 206 206 206 203 204 203 195 195 195 194 192 193 193 192 192 192 196 197 199 199 203 205 206 205 205 205 204 205 207 208 208 205 199 199 199 198 197 198 200 201 201 201 202 204 206 208 209 212 210 208 208 208 210 212 213 213 214 213 206 204 202 203 203 199 201 204 205 203 207 209 212
161 161 168 178 179 181 190 194 198 205 205 203 204 207 207 206 204 203 205 205 195 194 195 196 195 194 190 188 188 189 192 195 196 198 200 201 204 203 205 206 206 207 206 207 208 207 204 200 199 198 198 199 202 203 198 195 197 202 204 207 208 211 213 211 210 211 212 213 215 217 215 213 204 197 196 199 203 201 202 207 202 203 203 206 209
160 151 178 172 183 180 183 191 196 203 203 204 202 203 205 206 203 204 202 205 201 192 195 198 198 192 187 184 186 190 191 193 196 196 196 199 201 199 202 204 205 206 206 202 208 209 211 204 201 200 200 202 203 204 189 189 193 197 203 206 207 208 211 214 213 212 215 214 216 218 222 203 201 193 194 194 200 204 201 208 206 202 203 204 206
265 229 228 108 192 187 188 190 196 198 200 203 202 201 202 208 203 203 199 200 204 199 197 195 194 184 187 187 188 188 189 193 193 195 195 195 199 201 200 200 202 206 204 207 207 210 211 209 204 205 206 206 207 199 184 187 189 192 197 205 209 209 208 212 215 214 214 215 215 216 217 217 201 198 193 192 199 201 201 205 209 208 204 206 213
292 286 267 232 231 215 181 196 197 195 197 200 198 201 201 204 206 200 199 199 203 203 191 187 192 189 188 187 186 186 189 190 192 192 192 191 195 200 202 202 202 201 202 205 207 207 209 211 210 208 211 210 213 192 183 185 189 191 195 201 211 210 210 211 212 213 214 212 213 215 216 214 213 191 193 196 195 200 201 203 208 211 212 209 209
259 271 298 320 324 308 310 274 221 206 202 197 199 201 201 199 203 199 203 203 199 202 190 186 190 193 190 187 186 187 189 190 189 187 188 191 194 198 201 201 200 200 202 205 206 207 208 209 213 213 213 216 217 189 183 184 189 191 194 198 211 211 213 213 212 212 213 213 210 211 213 211 213 187 192 199 198 199 196 201 207 211 214 211 213
276 257 256 275 300 290 264 252 252 246 213 193 198 203 196 199 201 203 202 201 197 199 196 187 190 191 191 189 188 188 188 186 185 186 188 192 196 198 199 200 201 201 202 203 205 206 208 209 211 215 217 219 223 191 182 185 189 191 194 197 208 214 216 216 215 213 212 212 211 210 210 211 208 200 188 195 197 196 195 200 204 210 215 216 212
279 299 313 282 280 274 269 285 298 246 227 215 209 202 202 200 199 202 202 200 198 198 198 187 190 191 193 191 188 187 185 184 186 187 191 196 197 197 197 197 202 205 205 206 208 211 210 211 213 215 219 222 224 192 183 185 188 190 191 196 206 214 218 219 217 215 212 211 212 210 209 209 207 206 188 186 191 190 194 196 201 208 212 215 218
262 265 264 337 42 276 286 276 244 253 256 240 230 212 207 204 199 201 200 201 199 198 200 192 190 192 193 191 190 189 187 187 188 189 195 198 197 197 197 195 202 207 206 208 210 211 213 213 214 215 218 223 226 192 183 186 187 188 184 199 204 212 219 222 222 218 215 214 212 210 210 209 206 209 183 182 185 184 195 193 197 200 205 210 217
259 258 281 289 279 280 260 250 257 247 244 248 243 228 206 204 202 198 197 200 201 202 201 196 190 190 190 191 192 192 191 190 189 193 196 198 198 197 199 195 202 206 209 211 210 212 214 216 217 218 217 221 227 196 181 187 189 184 185 194 199 208 216 219 224 222 219 220 215 207 206 211 208 206 171 181 182 184 195 195 193 193 195 204 210
10 354 325 314 326 343 319 287 267 257 247 231 235 232 211 200 203 202 198 199 203 203 199 197 191 189 190 191 192 194 194 193 195 197 196 197 197 198 199 199 205 209 214 214 213 216 218 219 221 223 217 221 229 211 180 187 189 185 189 196 198 205 212 216 218 220 222 221 222 208 204 206 209 206 175 181 182 185 197 198 196 198 200 203 202
340 332 3 5 332 295 278 266 256 246 244 233 223 226 219 194 200 205 202 202 204 201 196 197 193 191 192 192 193 194 196 197 198 197 197 198 197 198 200 201 205 208 211 216 216 220 221 222 223 224 222 220 225 223 180 188 186 188 192 195 200 201 210 213 213 218 219 221 222 222 204 206 207 203 178 183 182 189 197 200 198 201 203 208 199
333 347 358 311 290 276 280 292 7 344 234 237 227 217 218 204 197 205 210 205 197 193 190 193 193 194 191 192 193 194 194 197 197 196 196 197 199 201 201 202 207 208 212 214 218 222 224 225 226 223 227 226 223 227 187 185 187 189 194 196 203 206 211 211 212 215 220 222 222 227 227 198 203 197 180 184 186 191 197 202 204 205 204 192 190
317 330 290 302 296 335 295 274 286 262 259 257 240 227 216 209 200 207 209 205 182 186 188 190 193 196 196 194 193 190 190 194 194 192 195 199 201 202 203 204 208 210 213 214 216 221 226 228 227 227 231 230 225 216 201 185 188 193 193 200 205 211 211 216 217 222 221 224 221 219 230 193 193 197 184 185 189 190 197 205 210 207 186 169 187
301 285 311 306 296 303 313 338 337 346 318 258 231 217 213 209 206 201 203 204 186 183 186 189 190 195 197 194 193 188 188 194 193 192 193 196 197 202 202 203 205 210 211 213 216 219 224 231 235 234 233 230 233 226 199 178 193 192 194 200 210 213 205 210 223 227 227 229 224 222 220 187 189 194 186 187 190 193 193 206 208 193 174 169 171
291 327 339 311 280 275 297 332 0 359 316 289 246 200 201 202 199 186 198 202 191 177 180 187 190 194 196 196 191 189 188 191 191 190 193 194 197 199 201 202 201 205 209 210 213 212 225 235 238 237 240 243 234 236 197 176 182 191 195 200 209 218 214 215 221 232 232 234 242 236 227 178 186 188 186 185 189 191 197 202 201 187 173 169 173
325 327 338 303 21 171 99 99 92 80 18 349 208 176 183 177 164 187 192 198 183 171 176 187 190 195 194 194 190 190 188 190 187 190 191 196 198 198 201 203 203 206 211 217 222 225 223 233 238 241 245 243 245 239 242 178 181 186 193 199 207 213 220 221 224 233 237 240 241 237 233 179 184 183 186 185 188 193 198 199 197 184 177 178 178
2 350 326 307 128 114 116 112 125 130 115 53 48 115 137 126 124 114 149 160 166 168 174 184 189 193 195 195 189 188 186 185 186 190 194 196 199 199 202 201 206 209 214 218 229 231 228 229 235 242 243 248 247 252 248 221 176 186 193 199 205 208 216 221 226 235 234 239 253 262 272 181 183 181 173 168 167 192 200 197 189 187 190 189 182
322 340 315 325 30 112 93 81 63 58 82 105 105 111 127 153 118 157 137 153 171 173 177 182 186 188 188 198 188 186 182 185 191 194 193 195 200 206 206 204 209 212 214 220 227 232 237 235 238 239 239 244 241 253 257 247 138 172 193 206 216 220 223 226 230 247 248 256 247 244 164 187 188 176 175 183 190 191 190 193 187 194 198 196 188
330 311 303 324 42 78 73 62 59 55 52 66 76 73 68 85 117 159 154 171 175 179 179 183 182 182 175 188 191 178 181 187 189 200 197 191 195 205 205 196 205 211 218 220 224 232 234 239 247 243 244 237 241 242 248 290 15 173 193 190 191 199 203 202 218 225 229 231 233 197 160 131 160 182 202 201 200 191 190 186 182 189 196 196 188
267 292 310 328 159 79 71 74 68 56 59 70 62 58 63 86 104 115 145 162 163 176 182 171 174 176 173 173 184 179 191 193 177 191 155 33 273 209 200 189 77 267 238 232 230 219 219 234 235 243 248 247 247 244 79 49 21 6 338 230 192 198 206 216 214 218 224 227 223 151 143 161 173 190 201 208 205 190 202 199 193 190 193 190 182
305 307 305 48 27 39 69 70 70 66 66 67 63 61 58 52 56 60 80 121 141 153 156 158 155 167 161 168 194 179 186 195 185 181 136 91 50 45 35 77 83 54 59 61 67 63 41 20 22 30 48 31 2 345 354 2 7 356 343 313 306 308 256 220 214 216 216 226 213 211 183 178 182 193 198 199 197 189 187 189 196 196 194 188 187
199 122 50 41 72 79 76 80 81 78 79 74 68 62 57 43 49 51 49 83 97 81 67 50 36 39 16 351 188 186 163 192 209 200 155 131 109 54 42 48 72 82 82 81 86 85 68 52 44 358 19 83 58 20 4 351 347 341 327 309 291 277 270 260 249 219 211 222 225 212 198 200 202 202 204 205 197 195 193 191 193 192 189 188 185